Location: ?????????
(53.2086°N, 54.0693°E)
Time: 10:27:59
(UTC+00:00)

NOSS 0 Rocket - Pass Details

Date: 08 December 2019
Orbit: 934 x 956 km, 70.0° (Epoch: 26 January)

Event Time Altitude Azimuth Distance (km) Brightness Sun altitude
Rises 14:13:39 0° 200° (SSW) 3,602 7.5 -17.7°
Reaches altitude 10° 14:16:10 10° 197° (SSW) 2,664 6.7 -18.1°
Maximum altitude 14:22:17 66° 117° (ESE) 1,039 3.9 -19.0°
Enters shadow 14:25:47 27° 44° (NE) 1,749 4.9 -19.5°
